This is the latest recevied weather packets stored in our database for station/object WA3NOA-2. If no packets are shown the sender has not sent any weather packets the latest 10 day(s).
| Time | Temp. | Humidity | Pressure | Rain* | Wind** | Luminosity | Snow |
|---|---|---|---|---|---|---|---|
| 1778146387 | 9.44° C | 93% | 1004.2 hPa | 0.51 mm | - | - | - |
| 1778146326 | 9.44° C | 93% | 1004.3 hPa | 0.51 mm | - | - | - |
| 1778146026 | 9.44° C | 93% | 1004.3 hPa | 0.25 mm | - | - | - |
| 1778145726 | 9.44° C | 93% | 1004.1 hPa | 0.25 mm | - | - | - |
| 1778145487 | 9.44° C | 93% | 1004 hPa | 0.25 mm | - | - | - |
| 1778145426 | 9.44° C | 93% | 1004 hPa | 0.25 mm | - | - | - |
| 1778145126 | 9.44° C | 93% | 1004 hPa | 0.25 mm | - | - | - |
| 1778144826 | 9.44° C | 93% | 1003.9 hPa | 0.25 mm | - | - | - |
| 1778144588 | 9.44° C | 93% | 1004 hPa | 0.76 mm | - | - | - |
| 1778144526 | 9.44° C | 93% | 1003.9 hPa | 0.76 mm | - | - | - |
| 1778144226 | 9.44° C | 93% | 1003.8 hPa | 0.51 mm | - | - | - |
| 1778143926 | 9.44° C | 93% | 1003.8 hPa | 0.51 mm | - | - | - |
| 1778143688 | 9.44° C | 93% | 1003.8 hPa | 0.51 mm | - | - | - |
| 1778143626 | 9.44° C | 93% | 1003.8 hPa | 0.51 mm | - | - | - |
| 1778143326 | 9.44° C | 93% | 1003.6 hPa | 0.76 mm | - | - | - |
| 1778143026 | 9.44° C | 93% | 1003.6 hPa | 0.76 mm | - | - | - |
| 1778142788 | 9.44° C | 93% | 1003.7 hPa | 0.76 mm | - | - | - |
| 1778142726 | 9.44° C | 93% | 1003.8 hPa | 0.76 mm | - | - | - |
| 1778142426 | 9.44° C | 93% | 1003.8 hPa | 0.51 mm | - | - | - |
| 1778142126 | 9.44° C | 93% | 1003.7 hPa | 0.51 mm | - | - | - |
| 1778141887 | 9.44° C | 93% | 1003.6 hPa | 0.76 mm | - | - | - |
| 1778141826 | 9.44° C | 93% | 1003.5 hPa | 0.76 mm | - | - | - |
| 1778141526 | 9.44° C | 93% | 1003.6 hPa | 0.76 mm | - | - | - |
| 1778141226 | 9.44° C | 93% | 1003.8 hPa | 0.76 mm | - | - | - |
| 1778140987 | 9.44° C | 93% | 1003.7 hPa | 0.25 mm | - | - | - |
* Rain latest hour (hover to see other rain measurements)
** Current wind speed in m/s (hover to see current wind gust speed)